Terminal Aerodrome Forecast
Issued by NWS

Current Version | Previous Version | Graphics & Text | Print | Product List | Glossary On
Versions: 1 2 3 4 5 6 7 8 9 10 11 12 13 14 15 16 17 18 19
050
FTUS41 KILN 180355 AAC
TAFLUK
TAF AMD
KLUK 180355Z 1804/1824 00000KT 3SM BR SKC
      TEMPO 1804/1808 1SM BR SCT002
     FM180800 00000KT 1/4SM FG BKN002
     FM181100 00000KT 2SM BR BKN002
     FM181300 VRB02KT P6SM SKC
     FM181500 VRB03KT P6SM SCT050=

USA.gov is the U.S. government's official web portal to all federal, state and local government web resources and services.